owner,sensor,date,latitude,longitude,vertical_datum,direction_of_sea_water_velocity,sea_water_speed,upward_sea_water_velocity,qcFlag 
TABS,ioos:station:wmo:42051:1,2009-05-01T00:00:00Z,29.6350,-93.6417,2.0,264.3501588,63.38788528,-99999.0,'11111222,11111222,99999999' 
TABS,ioos:station:wmo:42051:1,2009-05-01T00:30:00Z,29.6350,-93.6417,2.0,265.7662178,62.99186376,-99999.0,'11111222,11111222,99999999' 
TABS,ioos:station:wmo:42051:1,2009-05-01T01:00:00Z,29.6350,-93.6417,2.0,267.9413305,62.09005879,-99999.0,'11111222,11111222,99999999' 
TABS,ioos:station:wmo:42051:1,2009-05-01T01:30:00Z,29.6350,-93.6417,2.0,263.0613059,62.41709061,-99999.0,'11111222,11111222,99999999' 
TABS,ioos:station:wmo:42051:1,2009-05-01T02:00:00Z,29.6350,-93.6417,2.0,262.231738,57.48751604,-99999.0,'11111222,11111222,99999999' 
TABS,ioos:station:wmo:42051:1,2009-05-01T02:30:00Z,29.6350,-93.6417,2.0,266.3036406,60.65615385,-99999.0,'11111222,11111222,99999999' 
TABS,ioos:station:wmo:42051:1,2009-05-01T03:00:00Z,29.6350,-93.6417,2.0,267.0276649,57.47730335,-99999.0,'11111222,11111222,99999999' 
TABS,ioos:station:wmo:42051:1,2009-05-01T03:30:00Z,29.6350,-93.6417,2.0,283.25138,53.26825133,-99999.0,'11111222,11111222,99999999' 
TABS,ioos:station:wmo:42051:1,2009-05-01T04:00:00Z,29.6350,-93.6417,2.0,266.5787542,48.26600046,-99999.0,'11111222,11111222,99999999' 
TABS,ioos:station:wmo:42051:1,2009-05-01T04:30:00Z,29.6350,-93.6417,2.0,254.5525056,36.64368977,-99999.0,'11111222,11111222,99999999' 
TABS,ioos:station:wmo:42051:1,2009-05-01T05:00:00Z,29.6350,-93.6417,2.0,250.644535,37.41456935,-99999.0,'11111222,11111222,99999999' 
TABS,ioos:station:wmo:42051:1,2009-05-01T05:30:00Z,29.6350,-93.6417,2.0,248.8336895,36.83493586,-99999.0,'11111222,11111222,99999999' 
TABS,ioos:station:wmo:42051:1,2009-05-01T06:00:00Z,29.6350,-93.6417,2.0,255.5398239,44.29306605,-99999.0,'11111222,11111222,99999999' 
TABS,ioos:station:wmo:42051:1,2009-05-01T06:30:00Z,29.6350,-93.6417,2.0,256.1821922,38.10262458,-99999.0,'11111222,11111222,99999999' 
TABS,ioos:station:wmo:42051:1,2009-05-01T07:00:00Z,29.6350,-93.6417,2.0,256.047869,32.89029188,-99999.0,'11111222,11111222,99999999' 
TABS,ioos:station:wmo:42051:1,2009-05-01T07:30:00Z,29.6350,-93.6417,2.0,237.9017522,38.73025303,-99999.0,'11111222,11111222,99999999' 
TABS,ioos:station:wmo:42051:1,2009-05-01T08:00:00Z,29.6350,-93.6417,2.0,244.7126929,35.88887571,-99999.0,'11111222,11111222,99999999' 
TABS,ioos:station:wmo:42051:1,2009-05-01T08:30:00Z,29.6350,-93.6417,2.0,235.2558291,34.98808511,-99999.0,'11111222,11111222,99999999' 
TABS,ioos:station:wmo:42051:1,2009-05-01T09:00:00Z,29.6350,-93.6417,2.0,245.096909,27.28704088,-99999.0,'11111222,11111222,99999999' 
TABS,ioos:station:wmo:42051:1,2009-05-01T09:30:00Z,29.6350,-93.6417,2.0,248.4389298,16.35433276,-99999.0,'11111222,11111222,99999999' 
TABS,ioos:station:wmo:42051:1,2009-05-01T10:00:00Z,29.6350,-93.6417,2.0,244.2732183,11.61090866,-99999.0,'11111222,11111222,99999999' 
TABS,ioos:station:wmo:42051:1,2009-05-01T10:30:00Z,29.6350,-93.6417,2.0,276.1880491,14.10215586,-99999.0,'11111222,11111222,99999999' 
TABS,ioos:station:wmo:42051:1,2009-05-01T11:00:00Z,29.6350,-93.6417,2.0,296.2931061,41.40350227,-99999.0,'11111222,11111222,99999999' 
TABS,ioos:station:wmo:42051:1,2009-05-01T11:30:00Z,29.6350,-93.6417,2.0,308.5854448,67.08605816,-99999.0,'11111222,11111222,99999999' 
TABS,ioos:station:wmo:42051:1,2009-05-01T12:00:00Z,29.6350,-93.6417,2.0,309.377173,66.39154163,-99999.0,'11111222,11111222,99999999' 
TABS,ioos:station:wmo:42051:1,2009-05-01T12:30:00Z,29.6350,-93.6417,2.0,298.9503542,64.37402038,-99999.0,'11111222,11111222,99999999' 
TABS,ioos:station:wmo:42051:1,2009-05-01T13:00:00Z,29.6350,-93.6417,2.0,301.267782,70.86249572,-99999.0,'11111222,11111222,99999999' 
TABS,ioos:station:wmo:42051:1,2009-05-01T13:30:00Z,29.6350,-93.6417,2.0,293.8602441,68.03439424,-99999.0,'11111222,11111222,99999999' 
TABS,ioos:station:wmo:42051:1,2009-05-01T14:00:00Z,29.6350,-93.6417,2.0,288.2358431,58.12934027,-99999.0,'11111222,11111222,99999999' 
TABS,ioos:station:wmo:42051:1,2009-05-01T14:30:00Z,29.6350,-93.6417,2.0,287.4290023,56.35731807,-99999.0,'11111222,11111222,99999999' 
TABS,ioos:station:wmo:42051:1,2009-05-01T15:00:00Z,29.6350,-93.6417,2.0,278.6829245,51.3383385,-99999.0,'11111222,11111222,99999999' 
TABS,ioos:station:wmo:42051:1,2009-05-01T15:30:00Z,29.6350,-93.6417,2.0,286.5968546,55.00134726,-99999.0,'11111222,11111222,99999999' 
TABS,ioos:station:wmo:42051:1,2009-05-01T16:00:00Z,29.6350,-93.6417,2.0,278.5745621,58.75668132,-99999.0,'11111222,11111222,99999999' 
TABS,ioos:station:wmo:42051:1,2009-05-01T16:30:00Z,29.6350,-93.6417,2.0,268.7717893,57.40317935,-99999.0,'11111222,11111222,99999999' 
TABS,ioos:station:wmo:42051:1,2009-05-01T17:00:00Z,29.6350,-93.6417,2.0,266.310914,54.40270306,-99999.0,'11111222,11111222,99999999' 
TABS,ioos:station:wmo:42051:1,2009-05-01T17:30:00Z,29.6350,-93.6417,2.0,262.2770151,50.90166206,-99999.0,'11111222,11111222,99999999' 
TABS,ioos:station:wmo:42051:1,2009-05-01T18:00:00Z,29.6350,-93.6417,2.0,256.2920916,48.6146408,-99999.0,'11111222,11111222,99999999' 
TABS,ioos:station:wmo:42051:1,2009-05-01T18:30:00Z,29.6350,-93.6417,2.0,263.2562219,49.90524221,-99999.0,'11111222,11111222,99999999' 
TABS,ioos:station:wmo:42051:1,2009-05-01T19:00:00Z,29.6350,-93.6417,2.0,263.5307967,51.65889372,-99999.0,'11111222,11111222,99999999' 
TABS,ioos:station:wmo:42051:1,2009-05-01T19:30:00Z,29.6350,-93.6417,2.0,260.0453148,43.27140857,-99999.0,'11111222,11111222,99999999' 
TABS,ioos:station:wmo:42051:1,2009-05-01T20:00:00Z,29.6350,-93.6417,2.0,260.6663991,47.41772032,-99999.0,'11111222,11111222,99999999' 
TABS,ioos:station:wmo:42051:1,2009-05-01T20:30:00Z,29.6350,-93.6417,2.0,262.4869226,47.11443197,-99999.0,'11111222,11111222,99999999' 
TABS,ioos:station:wmo:42051:1,2009-05-01T21:00:00Z,29.6350,-93.6417,2.0,257.8343314,40.85750482,-99999.0,'11111222,11111222,99999999' 
TABS,ioos:station:wmo:42051:1,2009-05-01T21:30:00Z,29.6350,-93.6417,2.0,268.6108657,39.61163465,-99999.0,'11111222,11111222,99999999' 
TABS,ioos:station:wmo:42051:1,2009-05-01T22:00:00Z,29.6350,-93.6417,2.0,260.9356567,44.68801293,-99999.0,'11111222,11111222,99999999' 
TABS,ioos:station:wmo:42051:1,2009-05-01T22:30:00Z,29.6350,-93.6417,2.0,266.4188906,49.15596098,-99999.0,'11111222,11111222,99999999' 
TABS,ioos:station:wmo:42051:1,2009-05-01T23:00:00Z,29.6350,-93.6417,2.0,266.5571162,50.46105231,-99999.0,'11111222,11111222,99999999' 
TABS,ioos:station:wmo:42051:1,2009-05-01T23:30:00Z,29.6350,-93.6417,2.0,264.9235719,53.00788715,-99999.0,'11111222,11111222,99999999' 
TABS,ioos:station:wmo:42051:1,2009-05-02T00:00:00Z,29.6350,-93.6417,2.0,271.9896961,49.54986176,-99999.0,'11111222,11111222,99999999' 
TABS,ioos:station:wmo:42051:1,2009-05-02T00:30:00Z,29.6350,-93.6417,2.0,265.6700319,53.38233603,-99999.0,'11111222,11111222,99999999' 
TABS,ioos:station:wmo:42051:1,2009-05-02T01:00:00Z,29.6350,-93.6417,2.0,269.2549611,53.09448371,-99999.0,'11111222,11111222,99999999' 
TABS,ioos:station:wmo:42051:1,2009-05-02T01:30:00Z,29.6350,-93.6417,2.0,266.8858943,56.70371064,-99999.0,'11111222,11111222,99999999' 
TABS,ioos:station:wmo:42051:1,2009-05-02T02:00:00Z,29.6350,-93.6417,2.0,274.7035941,50.36960294,-99999.0,'11111222,11111222,99999999' 
TABS,ioos:station:wmo:42051:1,2009-05-02T02:30:00Z,29.6350,-93.6417,2.0,263.996347,57.27409275,-99999.0,'11111222,11111222,99999999' 
TABS,ioos:station:wmo:42051:1,2009-05-02T03:00:00Z,29.6350,-93.6417,2.0,260.0279691,58.44286098,-99999.0,'11111222,11111222,99999999' 
TABS,ioos:station:wmo:42051:1,2009-05-02T03:30:00Z,29.6350,-93.6417,2.0,257.2101931,59.85498643,-99999.0,'11111222,11111222,99999999' 
TABS,ioos:station:wmo:42051:1,2009-05-02T04:00:00Z,29.6350,-93.6417,2.0,265.1509105,47.5601987,-99999.0,'11111222,11111222,99999999' 
TABS,ioos:station:wmo:42051:1,2009-05-02T04:30:00Z,29.6350,-93.6417,2.0,244.2471386,53.92596592,-99999.0,'11111222,11111222,99999999' 
TABS,ioos:station:wmo:42051:1,2009-05-02T05:00:00Z,29.6350,-93.6417,2.0,239.3277265,59.26038981,-99999.0,'11111222,11111222,99999999' 
TABS,ioos:station:wmo:42051:1,2009-05-02T05:30:00Z,29.6350,-93.6417,2.0,244.9215493,66.17859246,-99999.0,'11111222,11111222,99999999' 
TABS,ioos:station:wmo:42051:1,2009-05-02T06:00:00Z,29.6350,-93.6417,2.0,239.2450077,65.31567117,-99999.0,'11111222,11111222,99999999' 
TABS,ioos:station:wmo:42051:1,2009-05-02T06:30:00Z,29.6350,-93.6417,2.0,243.578538,60.52160689,-99999.0,'11111222,11111222,99999999' 
TABS,ioos:station:wmo:42051:1,2009-05-02T07:00:00Z,29.6350,-93.6417,2.0,237.1277248,56.91249511,-99999.0,'11111222,11111222,99999999' 
TABS,ioos:station:wmo:42051:1,2009-05-02T07:30:00Z,29.6350,-93.6417,2.0,227.1568596,54.85379112,-99999.0,'11111222,11111222,99999999' 
TABS,ioos:station:wmo:42051:1,2009-05-02T08:00:00Z,29.6350,-93.6417,2.0,230.1719082,46.27765335,-99999.0,'11111222,11111222,99999999' 
TABS,ioos:station:wmo:42051:1,2009-05-02T08:30:00Z,29.6350,-93.6417,2.0,221.3671022,53.45861296,-99999.0,'11111222,11111222,99999999' 
TABS,ioos:station:wmo:42051:1,2009-05-02T09:00:00Z,29.6350,-93.6417,2.0,230.2220619,57.72031272,-99999.0,'11111222,11111222,99999999' 
TABS,ioos:station:wmo:42051:1,2009-05-02T09:30:00Z,29.6350,-93.6417,2.0,217.5741158,54.00208237,-99999.0,'11111222,11111222,99999999' 
TABS,ioos:station:wmo:42051:1,2009-05-02T10:00:00Z,29.6350,-93.6417,2.0,215.517099,52.53463619,-99999.0,'11111222,11111222,99999999' 
TABS,ioos:station:wmo:42051:1,2009-05-02T10:30:00Z,29.6350,-93.6417,2.0,212.586612,45.95433494,-99999.0,'11111222,11111222,99999999' 
TABS,ioos:station:wmo:42051:1,2009-05-02T11:00:00Z,29.6350,-93.6417,2.0,211.2660543,40.26842932,-99999.0,'11111222,11111222,99999999' 
TABS,ioos:station:wmo:42051:1,2009-05-02T11:30:00Z,29.6350,-93.6417,2.0,213.0957825,38.25695492,-99999.0,'11111222,11111222,99999999' 
TABS,ioos:station:wmo:42051:1,2009-05-02T12:00:00Z,29.6350,-93.6417,2.0,211.7092978,40.44793814,-99999.0,'11111222,11111222,99999999' 
TABS,ioos:station:wmo:42051:1,2009-05-02T12:30:00Z,29.6350,-93.6417,2.0,208.1573466,44.73416703,-99999.0,'11111222,11111222,99999999' 
TABS,ioos:station:wmo:42051:1,2009-05-02T13:00:00Z,29.6350,-93.6417,2.0,214.9649672,47.35816403,-99999.0,'11111222,11111222,99999999' 
TABS,ioos:station:wmo:42051:1,2009-05-02T13:30:00Z,29.6350,-93.6417,2.0,209.557327,40.60422761,-99999.0,'11111222,11111222,99999999' 
TABS,ioos:station:wmo:42051:1,2009-05-02T14:00:00Z,29.6350,-93.6417,2.0,208.0530037,36.84941384,-99999.0,'11111222,11111222,99999999' 
TABS,ioos:station:wmo:42051:1,2009-05-02T14:30:00Z,29.6350,-93.6417,2.0,213.6857148,39.10636393,-99999.0,'11111222,11111222,99999999' 
TABS,ioos:station:wmo:42051:1,2009-05-02T15:00:00Z,29.6350,-93.6417,2.0,211.8685429,36.91453101,-99999.0,'11111222,11111222,99999999' 
TABS,ioos:station:wmo:42051:1,2009-05-02T15:30:00Z,29.6350,-93.6417,2.0,210.6793907,38.39386019,-99999.0,'11111222,11111222,99999999' 
TABS,ioos:station:wmo:42051:1,2009-05-02T16:00:00Z,29.6350,-93.6417,2.0,214.8841293,34.46268997,-99999.0,'11111222,11111222,99999999' 
TABS,ioos:station:wmo:42051:1,2009-05-02T16:30:00Z,29.6350,-93.6417,2.0,212.6519595,35.67862245,-99999.0,'11111222,11111222,99999999' 
TABS,ioos:station:wmo:42051:1,2009-05-02T17:00:00Z,29.6350,-93.6417,2.0,221.5346373,27.02553052,-99999.0,'11111222,11111222,99999999' 
TABS,ioos:station:wmo:42051:1,2009-05-02T17:30:00Z,29.6350,-93.6417,2.0,228.0910452,24.38824717,-99999.0,'11111222,11111222,99999999' 
TABS,ioos:station:wmo:42051:1,2009-05-02T18:00:00Z,29.6350,-93.6417,2.0,224.4384036,18.76751449,-99999.0,'11111222,11111222,99999999' 
TABS,ioos:station:wmo:42051:1,2009-05-02T18:30:00Z,29.6350,-93.6417,2.0,207.9194907,19.86183526,-99999.0,'11111222,11111222,99999999' 
TABS,ioos:station:wmo:42051:1,2009-05-02T19:00:00Z,29.6350,-93.6417,2.0,194.9533193,18.33076649,-99999.0,'11111222,11111222,99999999' 
TABS,ioos:station:wmo:42051:1,2009-05-02T19:30:00Z,29.6350,-93.6417,2.0,195.930905,16.57667337,-99999.0,'11111222,11111222,99999999' 
TABS,ioos:station:wmo:42051:1,2009-05-02T20:00:00Z,29.6350,-93.6417,2.0,188.5947477,14.11855871,-99999.0,'11111222,11111222,99999999' 
TABS,ioos:station:wmo:42051:1,2009-05-02T20:30:00Z,29.6350,-93.6417,2.0,182.3480076,13.91168214,-99999.0,'11111222,11111222,99999999' 
TABS,ioos:station:wmo:42051:1,2009-05-02T21:00:00Z,29.6350,-93.6417,2.0,150.1502327,8.820124716,-99999.0,'11133222,11111222,99999999' 
TABS,ioos:station:wmo:42051:1,2009-05-02T21:30:00Z,29.6350,-93.6417,2.0,121.4920875,11.71556657,-99999.0,'11111222,11111222,99999999' 
TABS,ioos:station:wmo:42051:1,2009-05-02T22:00:00Z,29.6350,-93.6417,2.0,116.3743221,13.43884296,-99999.0,'11111222,11111222,99999999' 
TABS,ioos:station:wmo:42051:1,2009-05-02T22:30:00Z,29.6350,-93.6417,2.0,96.17270748,12.09009512,-99999.0,'11111222,11111222,99999999' 
TABS,ioos:station:wmo:42051:1,2009-05-02T23:00:00Z,29.6350,-93.6417,2.0,91.52795513,17.62626733,-99999.0,'11111222,11111222,99999999' 
TABS,ioos:station:wmo:42051:1,2009-05-02T23:30:00Z,29.6350,-93.6417,2.0,97.47098878,16.8429837,-99999.0,'11111222,11111222,99999999' 
TABS,ioos:station:wmo:42051:1,2009-05-03T00:00:00Z,29.6350,-93.6417,2.0,85.7380582,21.52953553,-99999.0,'11111222,11111222,99999999' 
TABS,ioos:station:wmo:42051:1,2009-05-03T00:30:00Z,29.6350,-93.6417,2.0,88.42845323,17.86672046,-99999.0,'11111222,11111222,99999999' 
TABS,ioos:station:wmo:42051:1,2009-05-03T01:00:00Z,29.6350,-93.6417,2.0,87.08679349,16.33110529,-99999.0,'11111222,11111222,99999999' 
TABS,ioos:station:wmo:42051:1,2009-05-03T01:30:00Z,29.6350,-93.6417,2.0,94.67517992,13.98653638,-99999.0,'11111222,11111222,99999999' 
TABS,ioos:station:wmo:42051:1,2009-05-03T02:00:00Z,29.6350,-93.6417,2.0,98.51144652,16.14784815,-99999.0,'11111222,11111222,99999999' 
TABS,ioos:station:wmo:42051:1,2009-05-03T02:30:00Z,29.6350,-93.6417,2.0,85.70358423,13.7486363,-99999.0,'11111222,11111222,99999999' 
TABS,ioos:station:wmo:42051:1,2009-05-03T03:00:00Z,29.6350,-93.6417,2.0,75.69340134,15.41816137,-99999.0,'11111222,11111222,99999999' 
TABS,ioos:station:wmo:42051:1,2009-05-03T03:30:00Z,29.6350,-93.6417,2.0,86.09735873,12.04793758,-99999.0,'11111222,11111222,99999999' 
TABS,ioos:station:wmo:42051:1,2009-05-03T04:00:00Z,29.6350,-93.6417,2.0,83.42999822,11.01232037,-99999.0,'11111222,11111222,99999999' 
TABS,ioos:station:wmo:42051:1,2009-05-03T04:30:00Z,29.6350,-93.6417,2.0,48.21022103,11.86973462,-99999.0,'11111222,11111222,99999999' 
TABS,ioos:station:wmo:42051:1,2009-05-03T05:00:00Z,29.6350,-93.6417,2.0,57.72176662,9.568709422,-99999.0,'11133222,11111222,99999999' 
TABS,ioos:station:wmo:42051:1,2009-05-03T05:30:00Z,29.6350,-93.6417,2.0,31.0043862,4.853411172,-99999.0,'11133222,11111222,99999999' 
TABS,ioos:station:wmo:42051:1,2009-05-03T06:00:00Z,29.6350,-93.6417,2.0,113.7253999,7.853769795,-99999.0,'11133222,11111222,99999999' 
TABS,ioos:station:wmo:42051:1,2009-05-03T06:30:00Z,29.6350,-93.6417,2.0,179.0168725,4.080600446,-99999.0,'11133222,11111222,99999999' 
TABS,ioos:station:wmo:42051:1,2009-05-03T07:00:00Z,29.6350,-93.6417,2.0,172.3940278,3.399911764,-99999.0,'11133222,11111222,99999999' 
TABS,ioos:station:wmo:42051:1,2009-05-03T07:30:00Z,29.6350,-93.6417,2.0,217.9112252,2.750454508,-99999.0,'11133222,11111222,99999999' 
TABS,ioos:station:wmo:42051:1,2009-05-03T08:00:00Z,29.6350,-93.6417,2.0,270.0889767,6.470007728,-99999.0,'11133222,11111222,99999999' 
TABS,ioos:station:wmo:42051:1,2009-05-03T08:30:00Z,29.6350,-93.6417,2.0,268.1125156,11.23609363,-99999.0,'11111222,11111222,99999999' 
TABS,ioos:station:wmo:42051:1,2009-05-03T09:00:00Z,29.6350,-93.6417,2.0,265.2538422,5.318232789,-99999.0,'11133222,11111222,99999999' 
TABS,ioos:station:wmo:42051:1,2009-05-03T09:30:00Z,29.6350,-93.6417,2.0,247.3665164,3.326153935,-99999.0,'11133222,11111222,99999999' 
TABS,ioos:station:wmo:42051:1,2009-05-03T10:00:00Z,29.6350,-93.6417,2.0,283.7845256,8.268119496,-99999.0,'11133222,11111222,99999999' 
TABS,ioos:station:wmo:42051:1,2009-05-03T10:30:00Z,29.6350,-93.6417,2.0,272.506142,16.92618386,-99999.0,'11111222,11111222,99999999' 
TABS,ioos:station:wmo:42051:1,2009-05-03T11:00:00Z,29.6350,-93.6417,2.0,275.0479181,16.59435145,-99999.0,'11111222,11111222,99999999' 
TABS,ioos:station:wmo:42051:1,2009-05-03T11:30:00Z,29.6350,-93.6417,2.0,289.5504295,18.19919229,-99999.0,'11111222,11111222,99999999' 
TABS,ioos:station:wmo:42051:1,2009-05-03T12:00:00Z,29.6350,-93.6417,2.0,264.7407797,20.94817414,-99999.0,'11111222,11111222,99999999' 
TABS,ioos:station:wmo:42051:1,2009-05-03T12:30:00Z,29.6350,-93.6417,2.0,273.2703149,27.87538341,-99999.0,'11111222,11111222,99999999' 
TABS,ioos:station:wmo:42051:1,2009-05-03T13:00:00Z,29.6350,-93.6417,2.0,266.7886934,26.60176122,-99999.0,'11111222,11111222,99999999' 
TABS,ioos:station:wmo:42051:1,2009-05-03T13:30:00Z,29.6350,-93.6417,2.0,264.3825695,33.51090718,-99999.0,'11111222,11111222,99999999' 
TABS,ioos:station:wmo:42051:1,2009-05-03T14:00:00Z,29.6350,-93.6417,2.0,243.4902246,32.2396433,-99999.0,'11111222,11111222,99999999' 
TABS,ioos:station:wmo:42051:1,2009-05-03T14:30:00Z,29.6350,-93.6417,2.0,221.7419136,23.64142974,-99999.0,'11111222,11111222,99999999' 
TABS,ioos:station:wmo:42051:1,2009-05-03T15:00:00Z,29.6350,-93.6417,2.0,215.3953481,14.53681189,-99999.0,'11111222,11111222,99999999' 
TABS,ioos:station:wmo:42051:1,2009-05-03T15:30:00Z,29.6350,-93.6417,2.0,208.3892789,11.7990042,-99999.0,'11111222,11111222,99999999' 
TABS,ioos:station:wmo:42051:1,2009-05-03T16:00:00Z,29.6350,-93.6417,2.0,203.3346665,11.58782551,-99999.0,'11111222,11111222,99999999' 
TABS,ioos:station:wmo:42051:1,2009-05-03T16:30:00Z,29.6350,-93.6417,2.0,202.0772125,13.48906594,-99999.0,'11111222,11111222,99999999' 
TABS,ioos:station:wmo:42051:1,2009-05-03T17:00:00Z,29.6350,-93.6417,2.0,191.0663565,10.15890742,-99999.0,'11111222,11111222,99999999' 
TABS,ioos:station:wmo:42051:1,2009-05-03T17:30:00Z,29.6350,-93.6417,2.0,214.7668467,8.557762558,-99999.0,'11133222,11111222,99999999' 
TABS,ioos:station:wmo:42051:1,2009-05-03T18:00:00Z,29.6350,-93.6417,2.0,223.113158,10.73970204,-99999.0,'11111222,11111222,99999999' 
TABS,ioos:station:wmo:42051:1,2009-05-03T18:30:00Z,29.6350,-93.6417,2.0,211.8757,19.71283085,-99999.0,'11111222,11111222,99999999' 
TABS,ioos:station:wmo:42051:1,2009-05-03T19:00:00Z,29.6350,-93.6417,2.0,226.5589539,37.41980492,-99999.0,'11111222,11111222,99999999' 
TABS,ioos:station:wmo:42051:1,2009-05-03T19:30:00Z,29.6350,-93.6417,2.0,228.5377631,39.64525949,-99999.0,'11111222,11111222,99999999' 
TABS,ioos:station:wmo:42051:1,2009-05-03T20:00:00Z,29.6350,-93.6417,2.0,230.1900293,36.03341921,-99999.0,'11111222,11111222,99999999' 
TABS,ioos:station:wmo:42051:1,2009-05-03T20:30:00Z,29.6350,-93.6417,2.0,229.028251,36.43531529,-99999.0,'11111222,11111222,99999999' 
TABS,ioos:station:wmo:42051:1,2009-05-03T21:00:00Z,29.6350,-93.6417,2.0,240.9098783,26.90365217,-99999.0,'11111222,11111222,99999999' 
TABS,ioos:station:wmo:42051:1,2009-05-03T21:30:00Z,29.6350,-93.6417,2.0,240.1512905,30.21863167,-99999.0,'11111222,11111222,99999999' 
TABS,ioos:station:wmo:42051:1,2009-05-03T22:00:00Z,29.6350,-93.6417,2.0,246.4052033,30.97986604,-99999.0,'11111222,11111222,99999999' 
TABS,ioos:station:wmo:42051:1,2009-05-03T22:30:00Z,29.6350,-93.6417,2.0,264.1520529,36.21846214,-99999.0,'11111222,11111222,99999999' 
TABS,ioos:station:wmo:42051:1,2009-05-03T23:00:00Z,29.6350,-93.6417,2.0,265.3594755,43.14139659,-99999.0,'11111222,11111222,99999999' 
TABS,ioos:station:wmo:42051:1,2009-05-03T23:30:00Z,29.6350,-93.6417,2.0,266.4908758,42.8102476,-99999.0,'11111222,11111222,99999999' 
TABS,ioos:station:wmo:42051:1,2009-05-04T00:00:00Z,29.6350,-93.6417,2.0,279.1140878,43.49913332,-99999.0,'11111222,11111222,99999999' 
TABS,ioos:station:wmo:42051:1,2009-05-04T00:30:00Z,29.6350,-93.6417,2.0,282.3488399,48.58398604,-99999.0,'11111222,11111222,99999999' 
TABS,ioos:station:wmo:42051:1,2009-05-04T01:00:00Z,29.6350,-93.6417,2.0,270.8612256,47.92540871,-99999.0,'11111222,11111222,99999999' 
TABS,ioos:station:wmo:42051:1,2009-05-04T01:30:00Z,29.6350,-93.6417,2.0,277.7930818,49.70905451,-99999.0,'11111222,11111222,99999999' 
TABS,ioos:station:wmo:42051:1,2009-05-04T02:00:00Z,29.6350,-93.6417,2.0,289.5798155,51.29605248,-99999.0,'11111222,11111222,99999999' 
TABS,ioos:station:wmo:42051:1,2009-05-04T02:30:00Z,29.6350,-93.6417,2.0,279.6630546,52.19042153,-99999.0,'11111222,11111222,99999999' 
TABS,ioos:station:wmo:42051:1,2009-05-04T03:00:00Z,29.6350,-93.6417,2.0,286.7526848,49.64703113,-99999.0,'11111222,11111222,99999999' 
TABS,ioos:station:wmo:42051:1,2009-05-04T03:30:00Z,29.6350,-93.6417,2.0,277.5725846,55.62507079,-99999.0,'11111222,11111222,99999999' 
TABS,ioos:station:wmo:42051:1,2009-05-04T04:00:00Z,29.6350,-93.6417,2.0,279.980898,54.352528,-99999.0,'11111222,11111222,99999999' 
TABS,ioos:station:wmo:42051:1,2009-05-04T04:30:00Z,29.6350,-93.6417,2.0,283.7590691,48.56347805,-99999.0,'11111222,11111222,99999999' 
TABS,ioos:station:wmo:42051:1,2009-05-04T05:00:00Z,29.6350,-93.6417,2.0,281.2633167,45.4146287,-99999.0,'11111222,11111222,99999999' 
TABS,ioos:station:wmo:42051:1,2009-05-04T05:30:00Z,29.6350,-93.6417,2.0,272.1776806,37.37698356,-99999.0,'11111222,11111222,99999999' 
TABS,ioos:station:wmo:42051:1,2009-05-04T06:00:00Z,29.6350,-93.6417,2.0,265.9450355,31.53893625,-99999.0,'11111222,11111222,99999999' 
TABS,ioos:station:wmo:42051:1,2009-05-04T06:30:00Z,29.6350,-93.6417,2.0,266.6871278,28.03684183,-99999.0,'11111222,11111222,99999999' 
TABS,ioos:station:wmo:42051:1,2009-05-04T07:00:00Z,29.6350,-93.6417,2.0,267.2049929,29.53512485,-99999.0,'11111222,11111222,99999999' 
TABS,ioos:station:wmo:42051:1,2009-05-04T07:30:00Z,29.6350,-93.6417,2.0,258.928061,27.33882587,-99999.0,'11111222,11111222,99999999' 
TABS,ioos:station:wmo:42051:1,2009-05-04T08:00:00Z,29.6350,-93.6417,2.0,251.4968095,29.36809323,-99999.0,'11111222,11111222,99999999' 
TABS,ioos:station:wmo:42051:1,2009-05-04T08:30:00Z,29.6350,-93.6417,2.0,238.9648967,23.52790896,-99999.0,'11111222,11111222,99999999' 
TABS,ioos:station:wmo:42051:1,2009-05-04T09:00:00Z,29.6350,-93.6417,2.0,227.7259889,25.86695962,-99999.0,'11111222,11111222,99999999' 
TABS,ioos:station:wmo:42051:1,2009-05-04T09:30:00Z,29.6350,-93.6417,2.0,230.8588888,29.02279277,-99999.0,'11111222,11111222,99999999' 
TABS,ioos:station:wmo:42051:1,2009-05-04T10:00:00Z,29.6350,-93.6417,2.0,229.3872045,33.367159,-99999.0,'11111222,11111222,99999999' 
TABS,ioos:station:wmo:42051:1,2009-05-04T10:30:00Z,29.6350,-93.6417,2.0,219.5185176,34.79317749,-99999.0,'11111222,11111222,99999999' 
TABS,ioos:station:wmo:42051:1,2009-05-04T11:00:00Z,29.6350,-93.6417,2.0,212.4028404,36.7997731,-99999.0,'11111222,11111222,99999999' 
TABS,ioos:station:wmo:42051:1,2009-05-04T11:30:00Z,29.6350,-93.6417,2.0,197.4217943,44.72159434,-99999.0,'11111222,11111222,99999999' 
TABS,ioos:station:wmo:42051:1,2009-05-04T12:00:00Z,29.6350,-93.6417,2.0,210.237642,49.00793813,-99999.0,'11111222,11111222,99999999' 
TABS,ioos:station:wmo:42051:1,2009-05-04T12:30:00Z,29.6350,-93.6417,2.0,205.63472,51.5213218,-99999.0,'11111222,11111222,99999999' 
TABS,ioos:station:wmo:42051:1,2009-05-04T13:00:00Z,29.6350,-93.6417,2.0,205.2661915,53.67494481,-99999.0,'11111222,11111222,99999999' 
TABS,ioos:station:wmo:42051:1,2009-05-04T13:30:00Z,29.6350,-93.6417,2.0,210.8334024,56.65813357,-99999.0,'11111222,11111222,99999999' 
TABS,ioos:station:wmo:42051:1,2009-05-04T14:00:00Z,29.6350,-93.6417,2.0,205.3301842,64.13637423,-99999.0,'11111222,11111222,99999999' 
TABS,ioos:station:wmo:42051:1,2009-05-04T14:30:00Z,29.6350,-93.6417,2.0,209.335045,72.35875137,-99999.0,'11111222,11111222,99999999' 
TABS,ioos:station:wmo:42051:1,2009-05-04T15:00:00Z,29.6350,-93.6417,2.0,212.2573408,80.65920034,-99999.0,'11111222,11111222,99999999' 
TABS,ioos:station:wmo:42051:1,2009-05-04T15:30:00Z,29.6350,-93.6417,2.0,224.1512869,74.02098148,-99999.0,'11111222,11111222,99999999' 
TABS,ioos:station:wmo:42051:1,2009-05-04T16:00:00Z,29.6350,-93.6417,2.0,242.6087029,67.94774831,-99999.0,'11111222,11111222,99999999' 